Flag for U.S.A. Weather past 2 weeks in Manassas, Virginia, U.S.A.

Now
19 °F

Sunny.


Feels Like: 10 °F
Forecast: 11 / 29 °F
Wind: 7 mph from North

Location: Manassas Municipal

Current Time: Feb 28, 2015 at 10:06:08 AM

Latest Report: Feb 28, 2015 at 8:45 AM


Visibility: 10 mi

Pressure: 30.85 "Hg

Humidity: 58%

Dew point: 7 °F

Location of ManassasLocation

Historic Weather in Manassas — Graph

°F

Manassas temperature yesterday

Maximum temperature yesterday: 34 °F (at 12:45 PM)
Minimum temperature yesterday: 19 °F (at 11:55 PM)
Average temperature yesterday: 29 °F

Past Weeks' High & Low Weather Summary

 TemperatureHumidityPressure
High46 °F (Feb 22, 2:50 PM)100% (Feb 14, 7:15 PM)30.85 "Hg (Feb 14, 7:15 PM)
Low0 °F (Feb 20, 10:35 PM)25% (Feb 20, 3:45 PM)29.46 "Hg (Feb 14, 4:45 PM)
Average20 °F68%30.16 "Hg
* Reported Feb 13 8:45 AM — Feb 28 8:45 AM, Manassas, Weather by CustomWeather, © 2015

Note: Actual official high and low records may vary slightly from our data, if they occured in-between our weather recording intervals... More about our weather records

Advertising

Manassas weather history for previous 24 hours

 ConditionsComfort  
Time TempWeatherWind HumidityBarometerVisibility
8:45 AM
Sat, Feb 28
19 °FSunny.7 mph58%30.85 "Hg10 mi
7:50 AM16 °FSunny.No wind67%30.84 "Hg10 mi
6:50 AM12 °FSunny.No wind73%30.80 "Hg10 mi
6:15 AM10 °FClear.No wind85%30.80 "Hg10 mi
5:55 AM12 °FClear.3 mph73%30.80 "Hg10 mi
5:35 AM12 °FClear.5 mph79%30.79 "Hg10 mi
5:15 AM10 °FClear.3 mph85%30.79 "Hg10 mi
4:55 AM12 °FClear.No wind79%30.77 "Hg10 mi
4:35 AM12 °FClear.No wind85%30.76 "Hg10 mi
4:15 AM12 °FClear.No wind85%30.75 "Hg10 mi
3:55 AM16 °FClear.3 mph67%30.74 "Hg10 mi
3:35 AM14 °FClear.No wind73%30.73 "Hg10 mi
3:15 AM16 °FClear.No wind73%30.73 "Hg10 mi
2:55 AM16 °FClear.No wind67%30.72 "Hg10 mi
2:35 AM18 °FClear.No wind62%30.73 "Hg10 mi
2:15 AM18 °FClear.5 mph62%30.71 "Hg10 mi
1:55 AM19 °FClear.7 mph58%30.70 "Hg10 mi
1:35 AM18 °FClear.7 mph62%30.70 "Hg10 mi
1:15 AM19 °FClear.5 mph58%30.70 "Hg10 mi
12:55 AM19 °FClear.3 mph58%30.69 "Hg10 mi
12:35 AM19 °FClear.3 mph58%30.70 "Hg10 mi
12:15 AM19 °FClear.8 mph58%30.68 "Hg10 mi
11:55 PM
Fri, Feb 27
19 °FClear.7 mph58%30.68 "Hg10 mi
11:35 PM21 °FClear.9 mph54%30.67 "Hg10 mi
10:55 PM21 °FClear.10 mph54%30.65 "Hg10 mi
10:35 PM23 °FClear.10 mph50%30.65 "Hg10 mi
9:45 PM25 °FClear.7 mph50%30.63 "Hg10 mi
8:45 PM27 °FClear.7 mph50%30.59 "Hg10 mi
6:50 PM28 °FClear.10 mph51%30.55 "Hg10 mi
5:50 PM30 °FSunny.8 mph47%30.50 "Hg10 mi
3:50 PM32 °FSunny.9 mph51%30.48 "Hg10 mi
2:50 PM32 °FSunny.16 mph47%30.46 "Hg10 mi
1:45 PM34 °FSunny.13 mph41%30.45 "Hg10 mi
12:45 PM34 °FSunny.13 mph41%30.44 "Hg10 mi
11:45 AM32 °FSunny.14 mph44%30.45 "Hg10 mi
10:55 AM30 °FScattered clouds.10 mph55%30.43 "Hg10 mi
Weather by CustomWeather, © 2015

See weather overviewHow to use our weather pages